Regional Weather Roundup
Issued by NWS

Home | Current Version | Previous Version | Graphics & Text | Print | Product List | Glossary On
Versions: 1 2 3 4 5 6 7 8 9 10 11 12 13 14 15 16 17 18 19 20 21 22 23 24 25 26 27 28 29 30 31 32 33 34 35 36 37 38 39 40 41 42 43 44 45 46 47 48 49 50
000
ASUS43 KMPX 281901
RWRMN
WEATHER ROUNDUP FOR MINNESOTA
NATIONAL WEATHER SERVICE TWIN CITIES/CHANHASSEN MN
200 PM CDT SUN MAY 28 2017


NOTE: "FAIR" INDICATES FEW OR NO CLOUDS BELOW 12,000 FEET WITH NO
SIGNIFICANT WEATHER AND/OR OBSTRUCTIONS TO VISIBILITY. N/A MEANS
CURRENT SKY AND/OR WEATHER CONDITIONS ARE NOT AVAILABLE.

MNZ060>063-068>070-282000-
   Twin Cities Metro

CITY           SKY/WX    TMP DP  RH WIND       PRES   REMARKS
TWIN CITIES    CLOUDY    70  45  40 W15G24    29.73F
ST PAUL        PTSUNNY   69  47  45 W14G21    29.73F
CRYSTAL        CLOUDY    67  44  43 W13       29.72S
BLAINE         PTSUNNY   72  46  40 W16G25    29.71F
LAKEVILLE      PTSUNNY   68  46  45 W10G23    29.75S
EDEN PRAIRIE   CLOUDY    69  45  41 W12G21    29.73F
SOUTH ST PAUL  PTSUNNY   68  45  42 NW14G20   29.73F
LAKE ELMO      FAIR      68  50  52 W16G22    29.73F
$$
MNZ001>005-007-008-013>017-022>024-027-028-282000-
   Northwest Minnesota

CITY           SKY/WX    TMP DP  RH WIND       PRES   REMARKS
BEMIDJI        CLOUDY    54  50  86 W16G22    29.71F
HALLOCK        CLOUDY    57  52  82 NW17      29.70F
ROSEAU         MOSUNNY   61  48  63 W13G21    29.67F
WARROAD        MOSUNNY   57  54  88 W12       29.66F
CROOKSTON      LGT RAIN  52  50  93 NW15G37   29.73S
FOSSTON        PTSUNNY   57  48  72 W15G22    29.73F
DETROIT LAKES  PTSUNNY   61  46  59 N16G24    29.76F
MOORHEAD       MOSUNNY   68  43  40 NW18G24   29.76F
PARK RAPIDS    CLOUDY    58  50  75 NW13      29.73R
MAHNOMEN       CLOUDY    60  46  58 NW15G28   29.74F
$$
MNZ006-009>011-018-025>026-282000-
   North Central Minnesota

CITY           SKY/WX    TMP DP  RH WIND       PRES   REMARKS
BAUDETTE       CLOUDY    58  50  75 W12       29.64F
FLAG ISLAND    CLOUDY    55  48  76 NW15G21   29.64S
INTL FALLS     TSTM      54  51  90 NW8       29.62R FOG
WASKISH        CLOUDY    59  50  72 W14G21    29.67S
BIG FORK       MOSUNNY   55  52  88 CALM      29.67R
LONGVILLE      CLOUDY    61  55  82 W3        29.69F
GRAND RAPIDS   LGT RAIN  54  48  80 W8        29.70R
CRANE LAKE     LGT RAIN  54  52  94 CALM      29.64F
ORR            CLOUDY    59  48  67 NW8       29.61F
COOK           CLOUDY    59  54  82 CALM      29.63F
WALKER         LGT RAIN  51  48  87 W14G22    29.72R
$$
MNZ012-019>021-037-282000-
   Northeast Minnesota

CITY           SKY/WX    TMP DP  RH WIND       PRES   REMARKS
DULUTH         MOSUNNY   62  50  64 W14       29.63F
ELY            CLOUDY    61  46  59 SE3       29.61F
HIBBING        PTSUNNY   61  47  59 NW14      29.63F
EVELETH        CLOUDY    61  45  55 W10       29.63F
DULUTH HARBOR  CLOUDY    63  54  72 W12G17    29.63F
TWO HARBORS    HVY RAIN  55  52  88 CALM      29.63R
SILVER BAY     CLOUDY    61  52  72 S7        29.62S
GRAND MARAIS     N/A     48  44  86 W7        29.65S
G MARAIS ARPRT CLOUDY    55  43  62 S8        29.65F
$$
MNZ029>031-032-039>041-046>048-054>057-064-282000-
   West Central Minnesota

CITY           SKY/WX    TMP DP  RH WIND       PRES   REMARKS
FERGUS FALLS   MOSUNNY   64  48  55 NW26G33   29.74F
WHEATON        MOSUNNY   68  37  32 NW18G29   29.79F
MORRIS         MOSUNNY   68  45  42 NW23G30   29.77F
ALEXANDRIA     PTSUNNY   60  55  83 NW16G26   29.79R
ELBOW LAKE     FAIR      63  49  61 W16       29.78F
WADENA         MOSUNNY   63  50  63 NW20      29.73F
GLENWOOD       HVY RAIN  55  50  82 W26G48    29.80R
APPLETON       MOSUNNY   72  43  35 NW17G25   29.79F
BENSON         SUNNY     72  43  35 N20G31    29.79F
ORTONVILLE     MOSUNNY   70  43  37 W17G23    29.80F
MADISON        PTSUNNY   70  46  43 NW20G28   29.81S
WILLMAR        FAIR      70  46  43 NW20G31   29.79S
$$
MNZ033>034-036-042>043-049>051-058-059-282000-
   Central Minnesota

CITY           SKY/WX    TMP DP  RH WIND       PRES   REMARKS
ST CLOUD       CLOUDY    68  49  50 W9G18     29.72F
SAUK CENTRE    FAIR      67  46  46 NW21G28   29.75F
PAYNESVILLE    MOSUNNY   69  42  37 W13G28    29.76F
AITKIN         CLOUDY    54  48  82 NW5       29.70R
PINE RIVER     CLOUDY    57  52  82 NW6       29.75S
BRAINERD       CLOUDY    61  53  75 W3        29.71F
STAPLES        MOSUNNY   63  48  59 NW17G26   29.73S
LONG PRAIRIE   PTSUNNY   64  46  52 W12G23    29.74F
LITTLE FALLS   CLOUDY    66  43  42 W17G24    29.72F
LITCHFIELD     MOSUNNY   70  46  43 W17G29    29.76F
BUFFALO        PTSUNNY   67  44  43 W15       29.74F
MAPLE LAKE     CLOUDY    68  48  49 W12G18    29.74F
HUTCHINSON     CLOUDY    71  46  41 W23G30    29.78S
$$
MNZ037-044-045-052-053-282000-
   East Central Minnesota

CITY           SKY/WX    TMP DP  RH WIND       PRES   REMARKS
PRINCETON      CLOUDY    66  52  59 W15       29.72S
MORA           MOSUNNY   64  48  55 NW7       29.71F
CAMBRIDGE      LGT RAIN  68  50  52 W14G20    29.69S
RUSH CITY      MOSUNNY   68  50  52 NW5       29.69F
MOOSE LAKE     PTSUNNY   64  48  55 W12G17    29.66S
HINCKLEY       FAIR      64  50  59 NW12G17   29.69F
CLOQUET        PTSUNNY   64  46  52 W15       29.65F
MCGREGOR       PTSUNNY   61  46  59 W10G18    29.70R
$$
MNZ071>073-080-081-089-090-097-098-282000-
   Southwest Minnesota

CITY           SKY/WX    TMP DP  RH WIND       PRES   REMARKS
MONTEVIDEO     MOSUNNY   70  45  40 N16G24    29.80F
CANBY          MOSUNNY   69  45  41 W18G31    29.83F
MARSHALL       MOSUNNY   71  44  37 W24G31    29.81F
REDWOOD FALLS  MOSUNNY   71  44  37 NW16G24   29.79F
OLIVIA         MOSUNNY   70  43  37 NW17G31   29.78F
PIPESTONE      MOSUNNY   70  34  26 NW18G29   29.87S
WINDOM         MOSUNNY   70  37  30 W23G29    29.83S
WORTHINGTON    MOSUNNY   70  43  37 W21G29    29.86F
JACKSON        MOSUNNY   72  39  30 W15G28    29.84F
TRACY          MOSUNNY   73  43  34 NW20G28   29.84S
SLAYTON        MOSUNNY   70  40  33 NW25G33   29.86S
$$
MNZ065>067-074>077-082>085-091>093-282000-
   South Central Minnesota

CITY           SKY/WX    TMP DP  RH WIND       PRES   REMARKS
MANKATO        CLOUDY    69  43  38 W20       29.79S
NEW ULM        MOSUNNY   70  43  37 W15G22    29.80S
ST JAMES       PTSUNNY   72  41  33 W20       29.82S
FAIRMONT       PTSUNNY   70  42  36 NW21      29.82F
GLENCOE        CLOUDY    70  46  42 W14G22    29.76S
FARIBAULT      PTSUNNY   70  45  40 W14G21    29.78S
OWATONNA       PTSUNNY   70  41  35 NW21G28   29.78S
WASECA         CLOUDY    72  43  35 W18G30    29.80F
ALBERT LEA     MOSUNNY   73  41  31 NW16G25   29.79S
$$
MNZ078>079-086>088-094>096-282000-
   Southeast Minnesota

CITY           SKY/WX    TMP DP  RH WIND       PRES   REMARKS
ROCHESTER      MOSUNNY   71  45  39 NW24G32   29.77F
RED WING       MOSUNNY   72  41  33 W15G23    29.72F
STANTON        CLOUDY    70  45  40 W18G24    29.74F
DODGE CENTER   PTSUNNY   70  43  37 W16G24    29.78S
WINONA         MOSUNNY   72  46  40 NW16G26   29.74S
AUSTIN         MOSUNNY   70  43  37 W21G28    29.78S
PRESTON        MOSUNNY   69  44  39 NW20G26   29.77S
$$
ABBREVIATIONS USED IN REMARKS
   TC - TEMPERATURES IN CELSIUS
  WCI - WIND CHILL INDEX
   HX - HEAT INDEX
  VSB - VISIBILITY
$$




USA.gov is the U.S. government's official web portal to all federal, state and local government web resources and services.